logo tempoitalia

Diretta Meteo Barnaul, Russialunedì 31 agosto ore 11:00

Mappa
Sereno 15 °C Poco Nuvoloso 24 Ore: T.min 12 T.max 19
Ponente Ovest/Nord-Ovest Km/h 18 Punto di rugiada: 7 °C Umidità: 58% Visibilità: 10 Km
Il sole sorge alle: 05:33 Il sole tramonta alle: 19:19
31 Agosto 2026 11:00 tempo osservato: Poco Nuvoloso Poco Nuvoloso 15 58 1010 vento: Nord O/NO 18
31 Agosto 2026 10:30 tempo osservato: Poco Nuvoloso Poco Nuvoloso 15 54 1010 vento: Nord O/NO 25.2
31 Agosto 2026 10:00 tempo osservato: Sereno Sereno 14 58 1010 vento: Nord O/NO 25.2
31 Agosto 2026 09:30 tempo osservato: Sereno Sereno 14 67 1010 vento: Nord O/NO 25.2
31 Agosto 2026 09:00 tempo osservato: Sereno Sereno 13 71 1009 vento: Nord O/NO 25.2
31 Agosto 2026 08:30 tempo osservato: Sereno Sereno 13 76 1009 vento: Nord NO 25.2
31 Agosto 2026 08:00 tempo osservato: Sereno Sereno 12 81 1009 vento: Nord O/NO 28.8
31 Agosto 2026 07:30 tempo osservato: Sereno Sereno 12 81 1008 vento: Nord O 25.2
31 Agosto 2026 07:00 tempo osservato: Sereno Sereno 13 81 1008 vento: Nord O/SO 18
31 Agosto 2026 06:30 tempo osservato: Sereno Sereno 13 87 1008 vento: Nord O/SO 18
31 Agosto 2026 06:00 tempo osservato: Sereno Sereno 13 93 1007 vento: Nord S/SO 10.8
31 Agosto 2026 05:30 tempo osservato: Sereno Sereno 13 93 1007 vento: Nord SO 14.4
31 Agosto 2026 05:00 tempo osservato: Sereno Sereno 13 93 1007 vento: Nord S/SO 10.8
31 Agosto 2026 04:30 tempo osservato: Sereno Sereno 13 100 1007 vento: Nord S/SO 10.8
31 Agosto 2026 04:00 tempo osservato: Sereno Sereno 13 100 1007 vento: Nord S 10.8
31 Agosto 2026 03:30 tempo osservato: Sereno Sereno 13 100 1007 vento: Nord S 10.8
31 Agosto 2026 03:00 tempo osservato: Sereno Sereno 13 100 1007 vento: Nord S 10.8
31 Agosto 2026 02:30 tempo osservato: Sereno Sereno 13 100 1007 vento: Nord S/SO 10.8
31 Agosto 2026 02:00 tempo osservato: Sereno Sereno 13 100 1007 vento: Nord S/SO 10.8
31 Agosto 2026 01:30 tempo osservato: Sereno Sereno 14 93 1008 vento: Nord S/SO 10.8
31 Agosto 2026 01:00 tempo osservato: Sereno Sereno 14 93 1008 vento: Nord S 10.8
31 Agosto 2026 00:30 tempo osservato: Sereno Sereno 14 100 1008 vento: Nord S 10.8
31 Agosto 2026 00:00 tempo osservato: Sereno Sereno 14 100 1008 vento: Nord S 10.8
30 Agosto 2026 23:30 tempo osservato: Sereno Sereno 14 100 1008 vento: Nord S 10.8
30 Agosto 2026 23:00 tempo osservato: Sereno Sereno 14 100 1008 vento: Nord S 10.8
30 Agosto 2026 22:30 tempo osservato: Sereno Sereno 14 93 1008 vento: Nord S 10.8
30 Agosto 2026 22:00 tempo osservato: Sereno Sereno 14 93 1009 vento: Nord S 10.8
30 Agosto 2026 21:30 tempo osservato: Sereno Sereno 14 93 1009 vento: Nord S 10.8
30 Agosto 2026 21:00 tempo osservato: Sereno Sereno 14 93 1009 vento: Nord S 10.8
30 Agosto 2026 20:30 tempo osservato: Sereno Sereno 15 87 1009 vento: Nord N 7.2
30 Agosto 2026 20:00 tempo osservato: Sereno Sereno 15 87 1009 vento: Nord N 7.2
30 Agosto 2026 19:30 tempo osservato: Sereno Sereno 16 82 1009 vento: Nord N 7.2
30 Agosto 2026 19:00 tempo osservato: Nuvoloso Nuvoloso 17 77 1009 vento: Nord S 10.8
30 Agosto 2026 18:30 tempo osservato: Nuvoloso Nuvoloso 18 67 1009 vento: Nord S 10.8
30 Agosto 2026 18:00 tempo osservato: Nuvoloso Nuvoloso 19 59 1009 vento: Nord S/SO 10.8
30 Agosto 2026 17:30 tempo osservato: Nuvoloso Nuvoloso 19 59 1010 vento: Nord S/SO 10.8
30 Agosto 2026 17:00 tempo osservato: Nuvoloso Nuvoloso 18 72 1010 vento: Nord S 10.8
30 Agosto 2026 16:30 tempo osservato: Nuvoloso Nuvoloso 18 67 1010 vento: Nord S 14.4
30 Agosto 2026 16:00 tempo osservato: Nuvoloso Nuvoloso 19 68 1010 vento: Nord S 14.4
30 Agosto 2026 15:30 tempo osservato: Nuvoloso Nuvoloso 18 72 1010 vento: Nord N 7.2
30 Agosto 2026 15:00 tempo osservato: Nuvoloso Nuvoloso 18 67 1011 vento: Nord N 3.6
30 Agosto 2026 14:30 tempo osservato: Nuvoloso Nuvoloso 18 67 1011 vento: Nord N 7.2
30 Agosto 2026 14:00 tempo osservato: Nuvoloso Nuvoloso 19 68 1011 vento: Nord N 3.6
30 Agosto 2026 13:30 tempo osservato: Nuvoloso Nuvoloso 18 63 1011 vento: Nord N 7.2
30 Agosto 2026 13:00 tempo osservato: Nuvoloso Nuvoloso 17 72 1011 vento: Nord N 7.2
30 Agosto 2026 12:30 tempo osservato: Nuvoloso Nuvoloso 18 67 1012 vento: Nord N 7.2
30 Agosto 2026 12:00 tempo osservato: Nuvoloso Nuvoloso 17 72 1012 vento: Nord N/NO 10.8